Location: Deurze
(52.9838°N, 6.6090°E)
Time: 19:28:22
(UTC+00:00)

Intercosmos 25 - Pass Details

Date: 11 March 2026
Orbit: 438 x 2816 km, 82.6° (Epoch: 20 April)

Event Time Altitude Azimuth Distance (km) Brightness Sun altitude
Rises 19:48:34 0° 352° (N) 2,462 7.1 -21.1°
Reaches altitude 10° 19:50:34 10° 357° (N) 1,565 6.0 -21.4°
Enters shadow 19:52:35 35° 15° (NNE) 756 4.0 -21.7°
